Wind_Speed
50 51 50 54 53 44 42 40 41 44 49 55 58 62 67 67 72 75 80 81 76 76 74 78 78 80 81 85 83 85 89 91 93 94 99 101 102 105
55 55 53 50 49 48 47 47 48 51 52 56 60 62 64 72 74 85 81 74 76 75 78 78 80 84 83 85 86 89 92 93 95 96 100 101 104 109
56 50 49 47 44 44 51 52 54 55 56 60 62 64 71 74 82 72 72 74 75 76 75 79 83 84 83 84 88 90 93 96 97 98 102 104 107 111
52 44 43 46 49 54 54 57 58 59 57 65 65 69 82 83 73 72 76 77 79 75 82 85 83 85 88 90 93 93 96 97 97 100 104 106 110 112
48 45 47 46 48 58 61 61 60 64 65 70 76 78 72 70 72 74 77 77 78 83 85 85 88 91 91 93 96 98 98 98 101 105 108 109 113 114
48 46 48 48 48 56 59 59 60 68 70 72 69 69 70 70 74 79 81 81 86 87 88 91 92 94 96 98 101 103 102 104 107 111 113 116 116 118
47 52 60 57 59 61 65 64 69 68 64 67 70 73 75 77 79 82 83 86 87 90 92 95 96 99 101 102 107 108 108 109 113 114 117 118 119 121
53 55 56 55 54 56 59 60 63 65 68 72 75 75 77 80 84 87 89 90 93 94 96 99 101 104 106 109 111 110 110 114 117 120 121 121 121 119
42 45 48 52 55 59 62 66 68 72 75 75 78 79 83 86 89 90 92 95 98 99 99 97 104 106 110 113 112 113 115 118 120 121 123 122 121 118
51 54 57 60 64 66 69 71 73 76 78 81 83 85 88 90 92 94 96 95 97 101 104 104 108 109 114 114 114 116 118 121 123 125 126 122 119 116
57 61 65 67 69 71 74 75 79 81 84 87 89 91 93 95 97 97 100 99 101 104 105 106 110 114 111 114 117 120 121 124 128 128 125 119 115 110
64 66 68 70 72 76 80 84 87 89 92 93 92 94 96 99 102 104 103 102 108 104 107 108 113 115 112 115 120 125 128 128 127 126 120 116 108 99
70 72 74 78 80 85 87 89 91 94 94 95 98 102 105 105 107 107 107 107 106 107 113 115 114 117 118 116 125 129 130 129 127 122 115 107 97 90
77 79 83 88 90 93 94 94 95 98 100 105 110 108 109 110 109 110 112 112 110 113 120 122 118 121 122 125 129 132 132 128 123 116 107 97 89 83
84 87 92 94 95 98 97 98 101 104 108 112 111 112 112 113 112 116 115 114 114 117 124 122 126 126 128 130 131 134 128 125 117 107 98 91 83 78
89 90 93 98 100 102 105 108 110 114 113 113 114 113 111 113 117 119 117 118 116 123 126 128 131 131 132 132 131 131 124 118 107 98 92 84 80 73
92 94 97 100 103 107 109 112 115 116 114 115 114 113 118 118 118 118 119 121 123 127 129 131 133 135 138 135 131 126 119 109 98 91 86 79 75 69
98 101 103 106 109 111 114 114 115 117 116 114 116 120 123 125 124 121 122 124 128 131 130 133 136 138 133 130 124 119 109 99 91 85 79 73 69 65
106 106 109 111 115 116 119 121 122 119 118 119 122 126 127 125 125 122 125 129 129 130 133 135 135 129 126 121 116 107 100 92 85 81 74 68 63 59
113 114 116 117 117 118 117 117 119 122 122 123 125 123 124 122 122 125 127 128 129 128 129 130 127 122 113 107 104 99 93 84 78 75 69 64 57 53
118 118 117 120 120 122 121 122 126 126 125 125 123 121 121 122 124 125 126 127 126 126 124 122 117 109 102 97 95 92 85 77 71 68 63 58 53 49
116 118 120 121 123 124 123 125 126 124 121 119 119 120 122 125 124 123 123 123 122 117 112 108 103 98 95 91 87 80 75 69 66 61 57 54 49 46
117 117 117 119 120 121 121 118 118 120 118 119 122 123 121 120 121 120 119 114 109 105 99 96 95 90 85 80 77 72 68 63 59 54 52 48 45 42
Wind_Direction
266 270 271 276 279 285 288 292 290 297 300 298 298 301 302 304 303 299 296 299 305 304 302 304 302 303 305 306 307 307 307 307 306 307 307 307 310 311
273 275 279 282 282 284 285 295 301 300 299 301 301 302 302 302 298 296 300 304 304 300 301 303 303 304 306 307 306 304 303 304 306 307 308 309 311 312
281 283 285 284 286 295 299 298 302 301 299 298 301 299 297 295 297 302 305 301 300 299 300 301 302 304 305 307 306 304 304 305 305 307 308 310 311 313
282 290 292 296 297 297 302 300 299 301 299 301 295 293 292 293 303 302 302 300 299 299 301 303 303 304 306 306 305 306 306 307 308 308 309 311 312 314
285 287 288 291 295 288 292 295 297 296 292 291 289 291 295 302 302 303 300 300 299 300 302 305 303 304 305 306 307 307 306 308 310 311 312 312 314 314
282 283 286 294 291 279 288 291 291 288 291 289 294 298 300 300 299 299 300 301 303 303 302 305 305 305 305 306 307 307 308 310 311 312 314 314 315 315
286 293 297 296 292 287 285 286 283 289 292 295 296 297 297 297 297 299 300 302 304 304 305 304 305 307 307 307 306 307 309 312 313 314 314 314 314 313
282 281 281 279 278 280 283 287 288 292 293 294 295 295 296 298 298 300 300 301 302 305 305 305 307 306 306 307 307 307 309 312 314 315 314 313 313 312
280 279 280 281 282 285 288 289 290 291 291 293 295 296 296 295 300 303 301 300 300 301 304 305 305 307 307 306 306 308 310 312 314 314 313 313 313 312
284 285 285 284 286 288 289 291 291 292 292 293 293 294 297 298 299 301 301 301 302 303 304 305 304 305 306 306 306 308 310 313 314 314 313 313 312 311
287 288 288 288 289 290 291 290 290 290 290 292 294 295 298 299 300 301 303 301 304 305 303 305 304 303 306 306 307 308 311 313 313 313 312 311 311 310
288 287 287 288 288 290 290 290 291 291 293 295 295 297 297 299 301 302 302 302 304 304 307 305 305 305 305 308 309 311 312 312 313 311 311 312 310 308
289 287 287 288 289 292 293 291 292 294 295 296 296 297 298 299 300 302 302 304 304 304 305 304 305 305 306 308 312 311 311 312 311 311 311 309 307 306
285 285 288 290 291 292 293 292 293 294 293 294 296 297 297 298 300 301 302 303 304 306 305 305 306 307 309 312 311 311 310 311 311 311 310 308 307 306
280 282 286 287 289 291 292 293 292 291 293 296 296 296 297 297 298 302 301 303 305 305 307 307 308 309 310 311 311 310 310 310 310 309 309 308 307 306
282 283 286 287 290 291 290 291 291 294 294 295 295 294 296 297 299 301 301 304 305 307 307 308 309 309 310 310 311 309 309 310 309 309 308 307 306 305
283 284 286 286 287 289 290 290 289 293 294 293 294 296 296 301 301 301 302 304 306 306 307 307 308 310 310 309 308 308 308 307 307 307 305 306 305 303
283 283 283 285 287 287 288 289 290 291 294 294 294 296 299 299 301 302 302 304 305 305 305 307 308 307 307 306 307 307 305 306 306 305 304 304 302 301
283 284 284 285 285 284 285 288 292 295 296 296 295 296 296 296 300 302 302 303 304 303 305 305 305 304 305 306 305 304 304 304 305 303 302 302 301 299
282 283 285 288 289 290 290 290 292 292 291 292 293 294 295 298 300 300 302 301 302 303 303 303 303 303 304 303 302 301 302 302 302 301 300 299 298 296
284 284 285 286 286 288 288 289 290 292 291 293 293 294 297 298 298 299 299 301 301 301 302 302 302 302 302 301 299 299 300 301 300 298 298 296 295 293
281 282 284 285 286 287 289 290 292 292 292 294 296 296 296 297 298 299 300 300 300 301 301 301 300 300 300 299 298 298 298 299 297 296 295 293 292 289
284 284 285 286 288 289 290 293 294 295 295 295 296 297 297 299 298 298 298 300 300 299 299 300 300 298 297 297 296 297 297 296 293 294 291 291 288 287
Height
10587 10587 10584 10582 10578 10574 10572 10569 10566 10561 10556 10551 10547 10538 10534 10528 10523 10517 10514 10507 10496 10487 10478 10470 10462 10453 10445 10436 10427 10419 10410 10399 10388 10376 10364 10352 10340 10326
10578 10576 10572 10568 10566 10562 10559 10555 10552 10548 10545 10537 10532 10525 10518 10514 10509 10506 10498 10489 10480 10470 10462 10453 10443 10436 10428 10419 10411 10401 10391 10380 10370 10357 10344 10329 10315 10301
10564 10561 10559 10555 10552 10548 10544 10541 10537 10533 10529 10524 10518 10511 10506 10505 10499 10489 10482 10472 10464 10455 10445 10438 10430 10422 10411 10401 10392 10381 10372 10360 10349 10336 10321 10305 10291 10276
10552 10550 10546 10541 10538 10534 10531 10526 10522 10517 10512 10508 10503 10500 10496 10491 10482 10473 10465 10457 10448 10442 10430 10422 10413 10403 10392 10382 10372 10360 10349 10337 10325 10313 10299 10284 10268 10253
10541 10538 10536 10532 10527 10523 10518 10515 10510 10504 10500 10495 10491 10486 10480 10472 10463 10457 10449 10442 10432 10423 10414 10404 10394 10382 10371 10361 10350 10339 10328 10317 10305 10288 10273 10255 10238 10221
10528 10526 10523 10519 10516 10510 10509 10504 10498 10492 10486 10481 10478 10471 10463 10457 10448 10440 10432 10423 10412 10403 10395 10384 10374 10363 10351 10340 10327 10314 10302 10291 10277 10261 10243 10225 10209 10193
10514 10509 10504 10501 10499 10497 10492 10488 10483 10480 10475 10468 10462 10455 10447 10440 10432 10422 10413 10404 10394 10383 10373 10361 10353 10342 10329 10318 10301 10286 10273 10262 10247 10232 10215 10198 10184 10168
10501 10499 10496 10494 10490 10485 10479 10476 10472 10466 10460 10454 10446 10438 10430 10422 10413 10404 10396 10385 10375 10365 10353 10340 10328 10317 10305 10291 10274 10261 10248 10235 10221 10203 10184 10170 10157 10140
10490 10487 10484 10481 10476 10472 10468 10462 10457 10451 10443 10436 10429 10420 10411 10404 10394 10385 10375 10365 10354 10341 10336 10327 10308 10297 10282 10268 10250 10237 10223 10209 10195 10179 10159 10144 10128 10111
10476 10472 10469 10466 10462 10457 10451 10445 10438 10431 10424 10417 10410 10402 10391 10384 10374 10364 10352 10343 10332 10320 10308 10303 10284 10277 10263 10244 10226 10211 10199 10184 10167 10151 10132 10117 10102 10085
10460 10457 10453 10448 10444 10439 10432 10426 10419 10413 10406 10398 10389 10380 10372 10362 10352 10342 10329 10318 10308 10295 10281 10273 10259 10252 10241 10221 10199 10182 10172 10159 10140 10123 10106 10091 10076 10061
10444 10440 10435 10429 10424 10419 10412 10406 10399 10391 10384 10377 10368 10359 10350 10339 10328 10318 10305 10293 10282 10270 10257 10248 10232 10217 10221 10196 10171 10152 10138 10124 10111 10097 10080 10064 10048 10034
10425 10420 10415 10410 10403 10398 10392 10383 10377 10370 10362 10353 10345 10335 10326 10316 10305 10293 10280 10268 10255 10241 10227 10219 10211 10193 10179 10174 10148 10126 10110 10098 10084 10065 10052 10036 10024 10012
10405 10400 10394 10387 10381 10373 10366 10360 10352 10345 10337 10329 10320 10310 10301 10291 10279 10268 10256 10243 10230 10215 10200 10186 10179 10162 10149 10135 10119 10100 10077 10067 10053 10037 10023 10012 10000 9989
10384 10378 10372 10366 10357 10348 10341 10335 10329 10321 10312 10304 10294 10284 10273 10264 10253 10242 10228 10215 10202 10185 10171 10153 10140 10129 10116 10104 10091 10067 10051 10039 10026 10011 9997 9987 9978 9966
10363 10357 10350 10339 10331 10326 10320 10312 10303 10295 10286 10276 10266 10257 10246 10236 10224 10213 10199 10185 10172 10155 10137 10122 10107 10093 10084 10069 10055 10037 10019 10012 9999 9986 9974 9964 9956 9946
10340 10333 10326 10320 10312 10304 10295 10285 10275 10267 10257 10248 10237 10226 10217 10205 10192 10181 10167 10155 10143 10127 10110 10091 10077 10061 10048 10037 10024 10006 9993 9982 9974 9963 9951 9944 9936 9927
10317 10309 10302 10294 10286 10277 10267 10258 10248 10239 10229 10218 10208 10195 10183 10173 10162 10149 10137 10125 10112 10097 10081 10063 10047 10037 10025 10011 9992 9983 9967 9959 9951 9942 9931 9924 9918 9909
10286 10280 10273 10265 10257 10248 10239 10229 10217 10206 10194 10186 10176 10165 10156 10144 10133 10119 10107 10095 10081 10068 10053 10035 10018 10006 9999 9988 9968 9955 9945 9936 9929 9919 9912 9904 9899 9892
10255 10249 10241 10231 10223 10214 10205 10196 10187 10178 10167 10157 10148 10136 10125 10112 10099 10087 10074 10062 10049 10036 10022 10003 9988 9978 9970 9959 9946 9928 9922 9917 9909 9899 9893 9888 9883 9877
10226 10219 10211 10203 10194 10184 10176 10166 10156 10147 10136 10126 10115 10104 10090 10079 10066 10054 10042 10029 10015 10000 9989 9974 9959 9949 9943 9932 9919 9906 9900 9895 9888 9880 9874 9870 9866 9862
10196 10189 10181 10172 10162 10154 10146 10136 10124 10115 10103 10092 10081 10069 10057 10045 10033 10021 10008 9994 9980 9969 9957 9946 9933 9923 9914 9908 9895 9886 9880 9875 9869 9863 9858 9854 9851 9848
10162 10155 10148 10140 10130 10120 10110 10100 10091 10080 10069 10058 10046 10034 10023 10011 9999 9986 9973 9961 9949 9938 9927 9918 9907 9899 9889 9883 9873 9866 9861 9855 9850 9846 9841 9839 9837 9835